Cloud_Cover
92 92 92 92 92 92 92 92 92 68 32 0 0 0 12 48 88 92 88 64 68 80 92 92 92 92 92 92 92 92 92 92 92 92 92 92 92 92 92 92 92 92 92 92 92 92 92 92 92 92 92 92 92 92 92 92 92 92 92 92 92 92 92 92 92 92 92 92 88
92 92 92 92 92 92 92 92 92 92 88 80 80 64 48 88 80 76 68 68 88 92 92 92 92 92 92 92 92 100 100 100 100 92 92 92 92 92 92 92 92 92 92 92 92 92 92 92 92 92 92 92 92 92 92 92 92 92 92 92 92 92 92 92 92 92 92 92 92
92 92 92 92 92 92 92 92 92 92 92 92 92 92 92 92 92 92 92 92 88 76 76 92 92 92 92 92 92 100 92 92 92 100 92 92 92 92 92 92 92 92 92 92 92 92 92 92 92 92 92 92 92 92 92 92 92 92 92 92 92 92 92 92 92 92 92 92 92
92 92 92 92 92 92 92 92 92 92 92 92 92 92 92 88 92 92 92 92 92 92 88 80 92 92 92 92 92 92 92 92 92 92 92 92 92 92 92 100 92 92 92 100 92 92 92 92 92 92 92 92 92 92 92 92 92 92 92 92 92 92 92 92 92 92 92 92 92
92 92 92 92 92 92 92 92 92 92 92 92 92 92 92 92 92 92 92 92 92 92 92 92 92 92 92 92 92 92 92 92 92 92 92 92 92 92 92 92 92 92 92 92 92 92 92 92 92 92 92 92 92 92 92 92 92 92 92 92 92 92 92 92 92 92 92 92 92
92 92 92 92 92 92 92 92 92 92 92 92 92 92 92 92 92 92 92 92 92 92 92 92 92 92 92 92 92 92 92 92 92 92 92 92 92 92 92 92 92 92 92 92 92 92 92 92 92 92 92 92 92 92 92 92 92 92 92 92 92 92 92 92 92 92 92 92 92
92 92 92 92 92 92 92 92 92 92 92 92 92 92 92 92 92 92 92 92 92 92 92 92 92 92 92 92 92 92 92 92 92 92 92 92 92 92 92 92 92 92 92 92 92 92 92 92 92 92 92 92 92 92 92 92 92 92 92 92 92 92 92 92 92 92 92 92 92
92 92 92 92 92 92 92 92 92 92 92 92 92 92 92 92 92 92 92 92 92 92 92 92 92 92 92 92 92 92 92 92 92 92 92 92 92 92 92 92 92 92 92 92 92 92 92 92 92 92 92 92 92 92 92 92 92 92 92 92 92 92 92 92 92 92 92 92 92
92 92 92 92 92 92 92 92 92 92 92 92 92 92 92 92 92 92 92 92 92 92 92 92 92 92 92 92 92 92 92 92 92 92 92 92 92 92 92 92 92 92 92 92 92 92 92 92 92 92 92 92 92 92 92 92 92 92 92 92 92 92 92 92 92 92 92 92 92
92 92 92 92 92 92 92 92 92 92 92 92 92 92 92 92 92 100 100 100 92 92 92 92 92 92 92 92 92 92 92 92 92 92 92 92 92 92 92 100 92 92 92 92 92 92 92 92 92 92 92 92 92 92 92 92 92 92 92 92 92 92 92 92 92 92 92 92 92
92 92 92 92 92 92 92 92 92 92 92 92 92 92 92 92 92 92 92 100 100 92 92 92 92 92 92 92 92 92 92 100 92 92 92 92 92 92 92 92 92 100 100 100 92 92 92 92 92 92 92 92 92 92 92 92 92 92 92 92 92 92 92 92 92 92 92 92 92
92 92 92 92 92 92 92 92 92 92 92 92 92 92 92 92 92 92 92 100 100 92 92 92 92 92 92 92 92 92 92 92 92 92 100 100 100 92 92 92 92 100 100 100 100 92 92 92 92 92 92 92 92 92 92 92 92 92 92 92 92 92 92 92 92 92 92 92 92
92 92 92 92 92 92 92 92 92 92 92 92 92 92 92 92 92 100 100 100 100 92 92 92 92 100 100 100 92 92 92 92 92 92 100 100 100 100 100 100 100 100 92 92 92 92 92 92 92 92 92 92 92 92 92 92 92 92 92 92 92 92 92 100 92 92 92 92 92
92 92 92 92 92 92 92 92 92 92 92 92 92 92 92 92 92 100 100 100 92 92 92 92 92 100 100 100 100 100 92 92 92 92 100 100 100 100 100 100 100 100 92 92 92 92 92 92 92 92 92 92 92 92 92 92 92 92 92 92 92 92 92 92 92 92 92 92 92
92 92 92 92 92 92 92 92 92 92 92 92 92 92 92 92 92 100 100 100 92 92 92 100 100 100 100 100 100 100 100 100 100 100 100 100 100 100 100 100 100 92 92 100 92 92 92 92 92 92 92 92 92 92 92 92 92 92 92 92 92 92 92 92 92 92 92 92 92
92 92 92 92 92 92 92 92 92 92 92 92 92 92 92 92 92 100 100 100 100 100 100 100 100 100 100 100 100 92 92 92 92 100 100 100 100 100 100 100 100 92 92 92 92 92 100 100 100 92 92 92 92 92 92 92 92 92 92 92 92 92 92 92 92 92 92 92 92
92 92 92 92 92 92 92 92 92 92 92 92 92 92 92 92 100 100 100 100 100 100 100 100 100 100 100 100 100 92 92 92 92 92 92 92 92 92 92 92 92 92 92 92 92 92 92 100 100 100 92 92 92 100 92 92 92 92 92 92 92 92 92 92 92 92 92 92 92
92 92 92 92 92 92 92 92 92 92 92 92 92 92 92 92 100 100 100 100 100 100 100 100 100 100 100 100 100 92 92 92 92 92 92 92 92 92 92 92 92 92 92 92 92 92 92 100 100 92 92 100 100 100 92 92 92 92 92 92 92 92 92 92 92 92 92 92 92
92 92 92 92 92 92 92 92 92 92 92 92 92 92 92 100 100 100 100 100 100 100 100 100 100 100 100 100 100 100 92 92 92 92 92 92 92 92 92 92 92 92 92 92 92 92 92 92 92 92 92 100 92 92 92 92 92 92 92 92 92 92 92 92 92 92 92 92 92
92 92 92 92 92 92 92 92 92 92 92 92 92 92 92 92 100 92 92 100 100 100 100 100 100 100 100 100 100 100 100 100 100 92 92 92 92 92 92 92 92 92 92 92 92 92 92 92 92 100 92 92 92 92 92 92 92 92 92 92 92 92 92 92 92 92 92 92 92
92 92 92 92 92 92 92 92 92 92 92 92 92 92 92 92 92 92 92 92 92 92 100 100 100 100 100 100 100 100 100 100 100 92 92 92 92 92 92 92 92 92 92 92 92 92 92 92 92 100 92 92 92 92 92 92 92 92 92 92 92 92 92 92 92 92 92 92 92
92 92 92 92 92 92 92 92 92 92 92 92 92 92 92 92 92 92 92 92 92 92 92 92 92 100 100 100 100 100 100 100 100 92 92 92 92 92 92 92 92 92 92 100 100 100 92 92 92 100 92 92 92 92 92 92 92 92 92 92 92 92 92 92 92 92 92 92 92
92 92 92 92 92 92 92 92 92 88 88 88 92 92 92 92 92 92 92 92 92 92 92 92 92 92 92 92 92 100 92 92 92 92 92 92 92 92 92 92 92 92 92 100 100 100 100 100 100 100 100 100 100 100 100 100 92 92 92 100 100 100 100 100 92 92 92 92 92
92 92 92 92 92 92 92 88 88 88 92 92 92 92 92 92 88 88 88 92 92 92 92 92 92 92 92 92 92 92 92 92 92 92 92 80 80 88 92 100 100 100 100 100 100 100 100 100 100 100 100 100 100 100 100 100 92 92 92 92 92 92 92 92 92 92 92 92 92
88 92 92 92 92 88 88 80 88 92 92 92 92 92 92 92 92 88 88 88 92 92 92 92 92 92 92 92 92 92 92 92 92 92 88 88 80 76 76 80 92 92 100 100 100 100 100 100 100 92 92 100 100 100 100 100 92 92 92 92 92 92 92 92 92 92 92 92 92
80 80 80 80 88 88 88 88 80 80 88 80 88 92 92 92 92 92 92 88 92 92 92 92 92 92 92 92 92 92 92 92 92 92 92 88 88 80 76 68 68 80 92 92 92 100 100 100 100 92 92 100 100 100 100 100 92 92 92 92 92 92 92 92 92 92 92 92 92
76 76 76 76 68 68 76 80 76 76 76 76 76 80 92 92 92 92 92 88 88 92 92 92 88 88 88 88 88 80 80 88 88 88 88 88 88 80 80 80 68 68 80 92 92 92 92 92 92 92 92 100 100 100 100 100 100 92 92 92 92 92 92 92 92 92 92 92 92
88 88 80 68 68 76 68 68 68 68 68 68 64 64 68 80 80 88 88 88 88 88 88 80 80 80 88 88 88 88 80 80 80 76 76 76 80 80 80 80 88 80 76 80 88 88 88 88 88 92 92 92 92 100 92 92 92 100 92 92 92 92 92 92 92 92 88 92 92
80 88 88 88 76 68 68 76 64 64 68 68 64 56 56 56 64 64 64 76 80 88 88 80 80 80 80 80 76 76 76 76 76 76 76 68 76 76 76 64 76 76 80 80 88 88 88 88 88 88 92 92 92 92 92 92 92 92 92 92 92 92 92 92 92 92 92 92 92
56 64 68 76 80 76 64 44 56 56 48 56 68 68 64 48 48 48 48 44 76 76 76 80 80 80 80 76 76 76 76 76 68 64 64 68 68 64 64 68 68 68 68 68 80 80 76 76 80 88 88 92 92 92 92 92 92 92 92 92 92 92 92 92 92 92 92 92 92
36 44 48 48 64 68 68 68 48 44 44 44 36 48 68 76 68 56 48 56 32 32 44 56 68 76 76 80 80 80 76 76 76 76 68 64 68 68 68 68 68 64 64 68 76 76 76 80 88 88 88 92 88 92 92 92 92 92 92 92 92 92 92 92 92 92 92 92 92
8 12 20 32 44 44 48 64 64 56 48 44 44 44 44 44 36 36 48 64 56 44 36 36 48 56 64 68 68 68 76 76 80 76 76 68 68 68 68 64 64 64 64 68 68 76 80 88 88 80 76 80 80 88 92 88 92 92 92 92 92 92 92 92 92 92 92 92 92
12 12 12 12 8 12 20 36 56 64 64 64 64 68 64 48 48 48 44 36 44 48 48 36 44 44 48 56 56 64 64 64 64 68 76 76 68 68 64 64 64 64 64 64 56 56 68 80 80 80 80 80 80 80 88 92 92 92 92 92 92 88 88 88 92 92 92 92 92
8 8 12 12 12 12 12 12 32 36 48 56 64 64 64 64 64 56 56 48 44 36 44 44 44 44 44 44 56 56 56 56 56 56 56 56 56 56 56 56 48 48 48 48 48 48 56 64 64 76 80 80 88 80 80 88 88 88 88 88 88 88 88 68 88 88 88 88 80
8 8 8 8 8 8 8 12 12 12 12 24 36 44 48 56 64 64 64 56 48 36 36 32 36 36 44 44 48 48 48 48 56 48 48 48 48 48 44 44 44 44 44 32 32 32 32 36 44 56 68 88 88 88 88 68 80 76 68 76 76 76 76 64 76 80 80 76 80
8 8 12 12 8 8 8 0 8 12 12 12 12 20 24 32 44 44 48 56 64 48 36 48 32 32 36 44 44 44 44 48 48 48 48 48 48 44 36 32 32 32 32 24 24 20 20 20 24 24 36 68 80 88 88 88 88 88 88 88 80 80 76 48 48 68 80 68 68
0 0 0 8 8 12 12 8 8 8 8 8 12 20 24 20 24 24 32 44 44 44 48 56 44 36 36 32 32 32 32 32 36 44 44 44 48 44 44 36 32 24 24 24 24 20 20 12 12 20 24 36 76 88 88 88 88 88 88 88 88 68 56 64 64 64 68 88 80
0 0 0 0 8 8 12 12 20 20 20 12 20 24 32 20 20 20 24 32 24 32 36 44 48 44 44 36 32 24 20 20 20 32 32 32 36 36 36 32 24 24 24 24 24 20 20 12 12 24 44 48 76 88 88 88 88 80 88 88 76 48 48 88 88 76 68 88 80
0 0 0 0 0 0 0 8 12 12 12 20 20 20 20 20 20 12 20 20 20 24 32 32 36 44 44 44 36 32 24 24 20 24 24 20 20 24 24 20 20 20 20 20 20 20 24 32 32 48 68 64 80 88 88 88 88 88 88 88 68 76 88 88 88 80 76 88 76
0 0 0 0 0 0 0 0 0 0 0 8 12 12 20 20 20 20 20 20 20 20 20 20 24 24 32 24 32 32 32 24 24 20 20 20 12 12 12 12 12 20 20 20 36 44 44 64 68 76 88 88 88 88 88 88 88 88 88 88 88 80 80 88 88 88 92 92 92
0 0 0 0 0 0 0 0 0 0 0 0 0 0 8 8 8 12 12 12 20 20 20 20 20 20 20 20 20 20 20 20 24 24 24 20 20 20 12 12 12 12 12 12 68 80 76 88 88 88 88 88 88 88 88 88 88 88 88 88 88 76 68 88 88 80 80 88 92